When you browse on this site, cookies collect data to enhance your experience and personalize the content and advertising you see.
Visit our Privacy Policy to learn more. By continuing to use the site, you agree to this use of cookies and data.
  • In Hungary
  • List of Countries
  • For 7 days
  • Water Temperature
  • Weather Map
  • News
  • Weather Widgets
  • user-avatar
    Login

    Hourly Weather Chkalovskiy

    Today, 18 October, Friday

    Time Temperature Precipitation Wind Pressure Humidity
    00:00 +12°C° 0 mm 4 mps 756 mmHg 88%
    01:00 +12°C° 0 mm 3 mps 756 mmHg 90%
    02:00 +11°C° 0 mm 3 mps 756 mmHg 92%
    03:00 +12°C° 0 mm 2 mps 755 mmHg 94%
    04:00 +12°C° 0 mm 2 mps 755 mmHg 94%
    05:00 +10°C° 0 mm 2 mps 755 mmHg 94%
    06:00 +10°C° 0 mm 2 mps 755 mmHg 95%
    07:00 +13°C° 0 mm 2 mps 755 mmHg 88%
    08:00 +14°C° 0 mm 2 mps 755 mmHg 82%
    09:00 +16°C° 0 mm 2 mps 755 mmHg 75%
    10:00 +17°C° 0 mm 2 mps 755 mmHg 66%
    11:00 +19°C° 0 mm 2 mps 754 mmHg 57%
    12:00 +21°C° 0 mm 2 mps 754 mmHg 47%
    13:00 +23°C° 0 mm 2 mps 754 mmHg 44%
    14:00 +23°C° 0 mm 2 mps 754 mmHg 42%
    15:00 +24°C° 0 mm 2 mps 753 mmHg 39%
    16:00 +23°C° 0 mm 2 mps 754 mmHg 43%
    17:00 +20°C° 0 mm 2 mps 754 mmHg 47%
    18:00 +20°C° 0 mm 1 mps 754 mmHg 51%
    19:00 +19°C° 0 mm 1 mps 754 mmHg 53%
    20:00 +19°C° 0 mm 1 mps 754 mmHg 54%
    21:00 +18°C° 0 mm 1 mps 754 mmHg 56%
    22:00 +18°C° 0 mm 1 mps 754 mmHg 57%
    23:00 +16°C° 0 mm 1 mps 753 mmHg 59%

    Tomorrow, 19 October, Saturday

    Time Temperature Precipitation Wind Pressure Humidity
    00:00 +16°C° 0 mm 1 mps 753 mmHg 60%
    01:00 +16°C° 0 mm 1 mps 753 mmHg 61%
    02:00 +16°C° 0 mm 1 mps 753 mmHg 62%
    03:00 +15°C° 0 mm 0 mps 753 mmHg 63%
    04:00 +15°C° 0 mm 1 mps 754 mmHg 64%
    05:00 +15°C° 0 mm 1 mps 754 mmHg 64%
    06:00 +15°C° 0 mm 1 mps 754 mmHg 65%
    07:00 +16°C° 0 mm 1 mps 754 mmHg 61%
    08:00 +19°C° 0 mm 1 mps 755 mmHg 57%
    09:00 +20°C° 0 mm 1 mps 755 mmHg 53%
    10:00 +22°C° 0 mm 1 mps 755 mmHg 49%
    11:00 +23°C° 0 mm 1 mps 755 mmHg 44%
    12:00 +24°C° 0 mm 1 mps 755 mmHg 40%
    13:00 +25°C° 0 mm 2 mps 755 mmHg 39%
    14:00 +25°C° 0 mm 2 mps 754 mmHg 37%
    15:00 +25°C° 0 mm 2 mps 754 mmHg 36%
    16:00 +24°C° 0 mm 2 mps 754 mmHg 40%
    17:00 +23°C° 0 mm 2 mps 755 mmHg 44%
    18:00 +20°C° 0 mm 2 mps 755 mmHg 48%
    19:00 +19°C° 0 mm 2 mps 755 mmHg 51%
    20:00 +19°C° 0 mm 2 mps 755 mmHg 54%
    21:00 +18°C° 0 mm 2 mps 756 mmHg 57%
    22:00 +17°C° 0 mm 2 mps 756 mmHg 60%
    23:00 +17°C° 0 mm 2 mps 756 mmHg 63%

    Day after tomorrow, 20 October, Sunday

    Time Temperature Precipitation Wind Pressure Humidity
    00:00 +16°C° 0 mm 2 mps 756 mmHg 66%
    01:00 +16°C° 0 mm 2 mps 756 mmHg 71%
    02:00 +15°C° 0 mm 2 mps 756 mmHg 75%
    03:00 +15°C° 0 mm 2 mps 756 mmHg 80%
    04:00 +15°C° 0 mm 2 mps 756 mmHg 82%
    05:00 +14°C° 0 mm 2 mps 756 mmHg 84%
    06:00 +14°C° 0 mm 2 mps 757 mmHg 86%
    07:00 +15°C° 0 mm 2 mps 757 mmHg 79%
    08:00 +16°C° 0 mm 3 mps 757 mmHg 72%
    09:00 +18°C° 0 mm 3 mps 757 mmHg 65%
    10:00 +19°C° 0 mm 3 mps 757 mmHg 56%
    11:00 +21°C° 0 mm 4 mps 757 mmHg 48%
    12:00 +22°C° 0 mm 4 mps 757 mmHg 39%
    13:00 +22°C° 0 mm 4 mps 757 mmHg 38%
    14:00 +22°C° 0 mm 4 mps 757 mmHg 36%
    15:00 +23°C° 0 mm 4 mps 757 mmHg 35%
    16:00 +21°C° 0 mm 4 mps 757 mmHg 39%
    17:00 +20°C° 0 mm 4 mps 757 mmHg 43%
    18:00 +18°C° 0 mm 3 mps 758 mmHg 48%
    19:00 +18°C° 0 mm 3 mps 758 mmHg 50%
    20:00 +17°C° 0 mm 3 mps 758 mmHg 53%
    21:00 +16°C° 0 mm 3 mps 758 mmHg 55%
    22:00 +14°C° 0 mm 3 mps 758 mmHg 57%
    23:00 +14°C° 0 mm 3 mps 758 mmHg 60%

    21 October, Monday

    Time Temperature Precipitation Wind Pressure Humidity
    00:00 +13°C° 0 mm 3 mps 758 mmHg 63%
    01:00 +13°C° 0 mm 3 mps 758 mmHg 65%
    02:00 +12°C° 0 mm 3 mps 758 mmHg 68%
    03:00 +12°C° 0 mm 3 mps 758 mmHg 70%
    04:00 +11°C° 0 mm 3 mps 758 mmHg 72%
    05:00 +11°C° 0 mm 3 mps 758 mmHg 75%
    06:00 +11°C° 0 mm 3 mps 758 mmHg 77%
    07:00 +12°C° 0 mm 3 mps 758 mmHg 71%
    08:00 +13°C° 0 mm 4 mps 759 mmHg 65%
    09:00 +15°C° 0 mm 4 mps 759 mmHg 59%
    10:00 +17°C° 0 mm 4 mps 759 mmHg 54%
    11:00 +17°C° 0 mm 5 mps 759 mmHg 49%
    12:00 +20°C° 0 mm 5 mps 758 mmHg 44%
    13:00 +20°C° 0 mm 5 mps 758 mmHg 44%
    14:00 +20°C° 0 mm 5 mps 758 mmHg 43%
    15:00 +20°C° 0 mm 5 mps 758 mmHg 43%
    16:00 +19°C° 0 mm 4 mps 758 mmHg 47%
    17:00 +18°C° 0 mm 4 mps 758 mmHg 51%
    18:00 +16°C° 0 mm 3 mps 758 mmHg 56%
    19:00 +16°C° 0 mm 3 mps 758 mmHg 59%
    20:00 +14°C° 0 mm 3 mps 758 mmHg 62%
    21:00 +13°C° 0 mm 3 mps 758 mmHg 65%
    22:00 +13°C° 0 mm 3 mps 758 mmHg 69%
    23:00 +12°C° 0 mm 3 mps 757 mmHg 73%

    22 October, Tuesday

    Time Temperature Precipitation Wind Pressure Humidity
    00:00 +11°C° 0 mm 3 mps 757 mmHg 78%
    01:00 +11°C° 0 mm 3 mps 757 mmHg 81%
    02:00 +11°C° 0 mm 3 mps 757 mmHg 84%
    03:00 +10°C° 0 mm 3 mps 757 mmHg 87%
    04:00 +10°C° 0 mm 2 mps 757 mmHg 88%
    05:00 +10°C° 0 mm 2 mps 757 mmHg 89%
    06:00 +9°C° 0 mm 2 mps 757 mmHg 89%
    07:00 +12°C° 0 mm 2 mps 757 mmHg 82%
    08:00 +12°C° 0 mm 3 mps 757 mmHg 75%
    09:00 +13°C° 0 mm 3 mps 757 mmHg 68%
    10:00 +16°C° 0 mm 3 mps 757 mmHg 60%
    11:00 +17°C° 0 mm 3 mps 756 mmHg 53%
    12:00 +19°C° 0 mm 3 mps 756 mmHg 45%
    13:00 +19°C° 0 mm 4 mps 756 mmHg 43%
    14:00 +20°C° 0 mm 4 mps 755 mmHg 41%
    15:00 +20°C° 0 mm 4 mps 755 mmHg 39%
    16:00 +19°C° 0 mm 3 mps 755 mmHg 43%
    17:00 +18°C° 0 mm 3 mps 755 mmHg 47%
    18:00 +16°C° 0 mm 2 mps 755 mmHg 51%
    19:00 +16°C° 0 mm 2 mps 755 mmHg 53%
    20:00 +15°C° 0 mm 2 mps 755 mmHg 55%
    21:00 +15°C° 0 mm 2 mps 755 mmHg 57%
    22:00 +14°C° 0 mm 2 mps 755 mmHg 60%
    23:00 +14°C° 0 mm 2 mps 755 mmHg 63%

    23 October, Wednesday

    Time Temperature Precipitation Wind Pressure Humidity
    00:00 +13°C° 0 mm 1 mps 755 mmHg 66%
    01:00 +13°C° 0 mm 1 mps 755 mmHg 68%
    02:00 +12°C° 0 mm 1 mps 755 mmHg 70%
    03:00 +12°C° 0 mm 1 mps 755 mmHg 71%
    04:00 +12°C° 0 mm 1 mps 755 mmHg 73%
    05:00 +10°C° 0 mm 0 mps 755 mmHg 74%
    06:00 +10°C° 0 mm 0 mps 755 mmHg 75%
    07:00 +13°C° 0 mm 1 mps 756 mmHg 68%
    08:00 +14°C° 0 mm 1 mps 756 mmHg 61%
    09:00 +16°C° 0 mm 1 mps 756 mmHg 55%
    10:00 +18°C° 0 mm 1 mps 757 mmHg 49%
    11:00 +18°C° 0 mm 2 mps 757 mmHg 44%
    12:00 +20°C° 0 mm 2 mps 757 mmHg 39%
    13:00 +20°C° 0 mm 2 mps 757 mmHg 37%
    14:00 +21°C° 0 mm 2 mps 756 mmHg 36%
    15:00 +21°C° 0 mm 3 mps 756 mmHg 35%
    16:00 +20°C° 0 mm 2 mps 757 mmHg 39%
    17:00 +18°C° 0 mm 2 mps 757 mmHg 43%
    18:00 +17°C° 0 mm 2 mps 757 mmHg 47%
    19:00 +16°C° 0 mm 2 mps 757 mmHg 49%
    20:00 +15°C° 0 mm 2 mps 758 mmHg 50%
    21:00 +15°C° 0 mm 2 mps 758 mmHg 52%
    22:00 +14°C° 0 mm 2 mps 758 mmHg 53%
    23:00 +14°C° 0 mm 2 mps 758 mmHg 54%
    Show more